EDT,Max TemperatureF,Mean TemperatureF,Min TemperatureF,Max Dew PointF,MeanDew PointF,Min DewpointF,Max Humidity, Mean Humidity, Min Humidity, Max Sea Level PressureIn, Mean Sea Level PressureIn, Min Sea Level PressureIn, Max VisibilityMiles, Mean VisibilityMiles, Min VisibilityMiles, Max Wind SpeedMPH, Mean Wind SpeedMPH, Max Gust SpeedMPH,PrecipitationIn, CloudCover, Events, WindDirDegrees
2012-10-1,66,52,37,51,41,36,93,68,34,29.96,29.91,29.85,10,8,0,7,1,,0.00,1,Fog,138
2012-10-2,70,61,52,49,45,41,81,59,36,29.93,29.87,29.83,10,10,10,10,3,,0.00,7,Rain,59
2012-10-3,66,60,55,59,53,49,94,76,55,30.06,29.99,29.91,10,8,0,10,3,16,0.00,8,Fog-Rain,184
2012-10-4,77,65,53,58,48,40,87,58,27,30.08,30.04,29.99,10,10,4,21,8,25,0.00,4,Rain,213
2012-10-5,61,53,45,58,44,36,89,75,46,30.07,30.02,29.95,10,10,5,18,9,25,0.00,5,Rain,250
2012-10-6,48,43,38,41,34,31,91,71,53,30.11,30.01,29.92,10,10,7,17,7,26,0.00,6,,260
2012-10-7,47,42,36,37,34,29,88,73,50,30.14,30.10,30.07,10,10,10,7,2,,0.00,7,Rain,232
2012-10-8,54,43,32,33,26,19,92,58,26,30.19,30.14,30.08,10,10,10,13,4,18,0.00,1,,197
2012-10-9,62,48,34,33,29,26,76,45,28,30.10,29.97,29.80,10,10,10,17,9,28,0.00,0,,188
2012-10-10,53,44,35,41,33,24,90,68,44,30.15,29.95,29.78,10,10,5,21,10,31,0.00,7,Rain,266
2012-10-11,62,47,32,38,29,25,84,56,25,30.19,30.10,30.00,10,10,7,28,7,34,0.00,2,Rain,231
2012-10-12,50,41,32,38,28,17,89,65,29,30.44,30.35,30.19,10,10,7,9,4,,0.00,1,Rain,331
2012-10-13,60,46,32,59,37,28,94,83,66,30.36,30.16,29.88,10,8,3,15,7,18,0.00,5,Rain,153
2012-10-14,69,63,55,61,58,52,94,80,64,29.84,29.63,29.42,10,7,2,24,11,32,0.00,7,Rain,193
2012-10-15,53,49,45,50,40,36,88,76,69,29.93,29.78,29.51,10,9,2,23,14,32,0.00,8,Rain,282
2012-10-16,59,46,34,39,34,32,89,61,35,29.98,29.88,29.73,10,10,10,13,5,16,0.00,2,Rain,179
2012-10-17,72,61,50,54,43,36,88,54,27,29.73,29.64,29.55,10,10,7,23,12,32,0.00,4,Rain,174
2012-10-18,60,54,49,54,42,28,88,63,32,29.65,29.50,29.36,10,9,5,23,11,31,0.00,6,Rain,174
2012-10-19,55,50,44,43,38,34,90,68,50,29.64,29.57,29.53,10,10,7,16,7,25,0.00,7,Rain,158
2012-10-20,55,50,43,44,41,37,91,77,49,29.90,29.70,29.57,10,8,3,15,5,21,0.00,7,Rain,256
2012-10-21,61,49,37,45,38,32,95,68,34,30.08,30.03,29.91,10,7,0,10,3,16,0.00,0,Fog,224
2012-10-22,72,58,43,56,47,38,90,71,52,30.08,30.03,29.96,10,9,1,12,4,,0.00,3,Rain,151
2012-10-23,65,62,59,60,58,56,93,87,78,30.01,29.95,29.89,10,5,1,10,4,,0.00,8,Rain,216
2012-10-24,77,68,59,58,57,54,93,72,44,30.03,29.99,29.95,10,8,3,12,5,17,0.00,3,Rain,173
2012-10-25,76,66,57,56,51,48,80,58,39,29.98,29.91,29.83,10,10,10,22,9,31,0.00,1,,179
2012-10-26,70,55,39,51,37,30,86,66,48,30.23,30.12,29.83,10,10,7,21,11,29,0.00,4,Rain,310
2012-10-27,51,42,34,35,30,26,82,62,39,30.23,30.20,30.14,10,10,10,9,4,17,0.00,3,,357
2012-10-28,46,40,34,34,28,22,81,63,43,30.22,30.18,30.13,10,10,10,15,5,28,0.00,5,Rain,6
2012-10-29,43,40,37,27,24,18,60,52,39,30.12,30.00,29.76,10,10,10,23,13,51,0.00,7,,346
2012-10-30,39,36,34,36,32,23,91,84,55,29.75,29.55,29.49,10,4,2,24,18,37,0.00,8,Rain-Snow,338
2012-10-31,42,38,35,38,35,33,90,87,82,29.66,29.59,29.53,10,5,2,16,12,25,0.00,8,Rain,308